| time (UTC) | temp F | wind direction | speed knots | gust knots | rain 1hr in | rain 24hr in | rain mn in | humidity % | barometer mb |
| 20260506233542 | 71 | 215 | 4.3 | 7.8 | 0.00 | 0.00 | 0.00 | 64 | 988.8 |
| 20260506233044 | 71 | 197 | 4.3 | 7.0 | 0.00 | 0.00 | 0.00 | 63 | 988.8 |
| 20260506232537 | 71 | 184 | 4.3 | 7.8 | 0.00 | 0.00 | 0.00 | 63 | 988.8 |
| 20260506232037 | 71 | 187 | 3.5 | 8.7 | 0.00 | 0.00 | 0.00 | 63 | 988.8 |
| 20260506231540 | 71 | 165 | 5.2 | 8.7 | 0.00 | 0.00 | 0.00 | 63 | 988.9 |
| 20260506231037 | 71 | 188 | 4.3 | 7.0 | 0.00 | 0.00 | 0.00 | 63 | 989.0 |
| 20260506230536 | 71 | 175 | 4.3 | 8.7 | 0.00 | 0.00 | 0.00 | 64 | 989.0 |
| 20260506230035 | 71 | 181 | 4.3 | 8.7 | 0.00 | 0.00 | 0.00 | 63 | 989.1 |
| 20260506225535 | 72 | 219 | 4.3 | 7.0 | 0.00 | 0.00 | 0.00 | 63 | 989.1 |
| 20260506225034 | 71 | 202 | 3.5 | 7.0 | 0.00 | 0.00 | 0.00 | 63 | 989.3 |
| 20260506224533 | 71 | 182 | 3.5 | 6.1 | 0.00 | 0.00 | 0.00 | 63 | 989.4 |
| 20260506224034 | 72 | 218 | 3.5 | 7.0 | 0.00 | 0.00 | 0.00 | 64 | 989.6 |
| 20260506223532 | 72 | 192 | 4.3 | 7.0 | 0.00 | 0.00 | 0.00 | 64 | 989.6 |
| 20260506223032 | 71 | 198 | 3.5 | 9.6 | 0.00 | 0.00 | 0.00 | 64 | 989.7 |
| 20260506222531 | 71 | 173 | 5.2 | 9.6 | 0.00 | 0.00 | 0.00 | 63 | 989.7 |
| 20260506222033 | 71 | 210 | 3.5 | 7.8 | 0.00 | 0.00 | 0.00 | 64 | 989.8 |
| 20260506221530 | 71 | 205 | 4.3 | 8.7 | 0.00 | 0.00 | 0.00 | 63 | 989.9 |
| 20260506221030 | 71 | 194 | 4.3 | 7.8 | 0.00 | 0.00 | 0.00 | 63 | 989.9 |
| 20260506220529 | 71 | 194 | 3.5 | 7.8 | 0.00 | 0.00 | 0.00 | 64 | 990.0 |
| 20260506220029 | 71 | 246 | 4.3 | 7.8 | 0.00 | 0.00 | 0.00 | 63 | 990.0 |
| 20260506215528 | 71 | 190 | 4.3 | 7.8 | 0.00 | 0.00 | 0.00 | 63 | 990.1 |
| 20260506215028 | 72 | 186 | 4.3 | 8.7 | 0.00 | 0.00 | 0.00 | 64 | 990.2 |
| 20260506214527 | 71 | 175 | 5.2 | 8.7 | 0.00 | 0.00 | 0.00 | 63 | 990.2 |
| 20260506214027 | 71 | 115 | 5.2 | 8.7 | 0.00 | 0.00 | 0.00 | 64 | 990.3 |
| 20260506213526 | 71 | 205 | 5.2 | 8.7 | 0.00 | 0.00 | 0.00 | 63 | 990.5 |
| 20260506213026 | 71 | 204 | 3.5 | 7.8 | 0.00 | 0.00 | 0.00 | 64 | 990.5 |
| 20260506212526 | 71 | 186 | 4.3 | 9.6 | 0.00 | 0.00 | 0.00 | 64 | 990.5 |
| 20260506212026 | 71 | 209 | 5.2 | 9.6 | 0.00 | 0.00 | 0.00 | 64 | 990.7 |
| 20260506211525 | 71 | 188 | 4.3 | 8.7 | 0.00 | 0.00 | 0.00 | 65 | 990.7 |
| 20260506211025 | 70 | 158 | 5.2 | 9.6 | 0.00 | 0.00 | 0.00 | 64 | 990.7 |
| 20260506210524 | 70 | 175 | 4.3 | 9.6 | 0.00 | 0.00 | 0.00 | 64 | 990.9 |
| 20260506210026 | 70 | 163 | 3.5 | 10.4 | 0.00 | 0.00 | 0.00 | 65 | 990.8 |
| 20260506205525 | 70 | 169 | 6.1 | 10.4 | 0.00 | 0.00 | 0.00 | 63 | 990.8 |
| 20260506205024 | 71 | 215 | 4.3 | 8.7 | 0.00 | 0.00 | 0.00 | 65 | 990.7 |
| 20260506204525 | 70 | 164 | 3.5 | 10.4 | 0.00 | 0.00 | 0.00 | 64 | 990.8 |
| 20260506204025 | 70 | 192 | 7.0 | 10.4 | 0.00 | 0.00 | 0.00 | 64 | 990.8 |
| 20260506203524 | 70 | 185 | 4.3 | 7.8 | 0.00 | 0.00 | 0.00 | 66 | 990.8 |
| 20260506203024 | 70 | 215 | 2.6 | 8.7 | 0.00 | 0.00 | 0.00 | 65 | 990.8 |
| 20260506202523 | 70 | 170 | 5.2 | 8.7 | 0.00 | 0.00 | 0.00 | 65 | 990.9 |
| 20260506202024 | 70 | 167 | 2.6 | 9.6 | 0.00 | 0.00 | 0.00 | 65 | 991.0 |
| 20260506201523 | 70 | 169 | 4.3 | 8.7 | 0.00 | 0.00 | 0.00 | 64 | 991.0 |
| 20260506201023 | 71 | 173 | 5.2 | 9.6 | 0.00 | 0.00 | 0.00 | 65 | 990.9 |
| 20260506200522 | 71 | 203 | 5.2 | 9.6 | 0.00 | 0.00 | 0.00 | 64 | 991.0 |
| 20260506200023 | 71 | 173 | 5.2 | 9.6 | 0.00 | 0.00 | 0.00 | 64 | 991.0 |
| 20260506195523 | 71 | 222 | 6.1 | 9.6 | 0.00 | 0.00 | 0.00 | 65 | 991.0 |
| 20260506195022 | 71 | 209 | 3.5 | 8.7 | 0.00 | 0.00 | 0.00 | 65 | 991.0 |
| 20260506194522 | 71 | 198 | 4.3 | 10.4 | 0.00 | 0.00 | 0.00 | 65 | 991.1 |
| 20260506194023 | 70 | 185 | 5.2 | 10.4 | 0.00 | 0.00 | 0.00 | 64 | 991.0 |
| 20260506193520 | 70 | 114 | 4.3 | 12.2 | 0.00 | 0.00 | 0.00 | 64 | 991.1 |
| 20260506193020 | 70 | 178 | 5.2 | 12.2 | 0.00 | 0.00 | 0.00 | 64 | 991.1 |
| 20260506192518 | 70 | 188 | 4.3 | 8.7 | 0.00 | 0.00 | 0.00 | 65 | 991.0 |
| 20260506192017 | 70 | 184 | 3.5 | 8.7 | 0.00 | 0.00 | 0.00 | 64 | 991.1 |
| 20260506191518 | 70 | 238 | 3.5 | 7.0 | 0.00 | 0.00 | 0.00 | 65 | 991.1 |
| 20260506191017 | 69 | 207 | 3.5 | 8.7 | 0.00 | 0.00 | 0.00 | 64 | 991.2 |
| 20260506190519 | 70 | 144 | 3.5 | 8.7 | 0.00 | 0.00 | 0.00 | 65 | 991.1 |
| 20260506190014 | 69 | 166 | 5.2 | 8.7 | 0.00 | 0.00 | 0.00 | 64 | 991.1 |
| 20260506185514 | 69 | 219 | 3.5 | 7.0 | 0.00 | 0.00 | 0.00 | 65 | 991.2 |
| 20260506185014 | 69 | 228 | 3.5 | 6.1 | 0.00 | 0.00 | 0.00 | 66 | 991.2 |
| 20260506184512 | 68 | 231 | 3.5 | 7.0 | 0.00 | 0.00 | 0.00 | 66 | 991.3 |
| 20260506184011 | 68 | 184 | 4.3 | 7.0 | 0.00 | 0.00 | 0.00 | 65 | 991.4 |
| 20260506183512 | 68 | 239 | 4.3 | 7.0 | 0.00 | 0.00 | 0.00 | 65 | 991.3 |
| 20260506183009 | 69 | 215 | 2.6 | 7.0 | 0.00 | 0.00 | 0.00 | 64 | 991.3 |
| 20260506182509 | 68 | 226 | 3.5 | 7.8 | 0.00 | 0.00 | 0.00 | 65 | 991.4 |
| 20260506182010 | 68 | 202 | 3.5 | 7.0 | 0.00 | 0.00 | 0.00 | 65 | 991.4 |
| 20260506181505 | 68 | 214 | 2.6 | 5.2 | 0.00 | 0.00 | 0.00 | 67 | 991.6 |
| 20260506181007 | 67 | 274 | 0.9 | 5.2 | 0.00 | 0.00 | 0.00 | 65 | 991.6 |
| 20260506180503 | 67 | 179 | 2.6 | 5.2 | 0.00 | 0.00 | 0.00 | 65 | 991.6 |
| 20260506180002 | 67 | 189 | 1.7 | 9.6 | 0.00 | 0.00 | 0.00 | 65 | 991.7 |
| 20260506175502 | 67 | 194 | 3.5 | 9.6 | 0.00 | 0.00 | 0.00 | 65 | 991.7 |
| 20260506175100 | 66 | 303 | 1.7 | 6.1 | 0.00 | 0.00 | 0.00 | 67 | 991.6 |
| 20260506174559 | 67 | 213 | 2.6 | 6.1 | 0.00 | 0.00 | 0.00 | 66 | 991.7 |
| 20260506174058 | 66 | 270 | 2.6 | 6.1 | 0.00 | 0.00 | 0.00 | 67 | 991.8 |
| 20260506173556 | 66 | 162 | 3.5 | 7.0 | 0.00 | 0.00 | 0.00 | 67 | 991.8 |
| 20260506173116 | 66 | 202 | 0.9 | 6.1 | 0.00 | 0.00 | 0.00 | 67 | 991.8 |
| 20260506172555 | 66 | 231 | 2.6 | 6.1 | 0.00 | 0.00 | 0.00 | 66 | 991.7 |
| 20260506172052 | 66 | 159 | 3.5 | 7.0 | 0.00 | 0.00 | 0.00 | 66 | 991.6 |
| 20260506171559 | 65 | 180 | 1.7 | 7.0 | 0.00 | 0.00 | 0.00 | 66 | 991.6 |
| 20260506171051 | 66 | 212 | 2.6 | 4.3 | 0.00 | 0.00 | 0.00 | 66 | 991.7 |
| 20260506170550 | 65 | 187 | 1.7 | 4.3 | 0.00 | 0.00 | 0.00 | 68 | 991.7 |
| 20260506170048 | 64 | 231 | 1.7 | 5.2 | 0.00 | 0.00 | 0.00 | 67 | 991.7 |
| 20260506165547 | 65 | 208 | 2.6 | 6.1 | 0.00 | 0.00 | 0.00 | 68 | 991.7 |
| 20260506165046 | 64 | 188 | 3.5 | 5.2 | 0.00 | 0.00 | 0.00 | 68 | 991.8 |
| 20260506164545 | 64 | 106 | 0.9 | 6.1 | 0.00 | 0.00 | 0.00 | 67 | 991.8 |
| 20260506164043 | 63 | 109 | 2.6 | 6.1 | 0.00 | 0.00 | 0.00 | 69 | 991.7 |
| 20260506163542 | 63 | 171 | 0.9 | 5.2 | 0.00 | 0.00 | 0.00 | 69 | 991.7 |
| 20260506163047 | 63 | 171 | 2.6 | 6.1 | 0.00 | 0.00 | 0.00 | 71 | 991.8 |
| 20260506162539 | 63 | 150 | 2.6 | 6.1 | 0.00 | 0.00 | 0.00 | 69 | 991.8 |
| 20260506162039 | 63 | 148 | 2.6 | 6.1 | 0.00 | 0.00 | 0.00 | 70 | 991.8 |
| 20260506161548 | 62 | 132 | 1.7 | 5.2 | 0.00 | 0.00 | 0.00 | 71 | 991.8 |
| 20260506161034 | 61 | 179 | 2.6 | 5.2 | 0.00 | 0.00 | 0.00 | 73 | 991.7 |
| 20260506160535 | 61 | 178 | 2.6 | 7.8 | 0.00 | 0.00 | 0.00 | 72 | 991.8 |
| 20260506160032 | 61 | 182 | 2.6 | 7.8 | 0.00 | 0.00 | 0.00 | 74 | 991.7 |
| 20260506155530 | 60 | 161 | 1.7 | 4.3 | 0.00 | 0.03 | 0.00 | 76 | 991.8 |
| 20260506155029 | 60 | 160 | 1.7 | 4.3 | 0.00 | 0.03 | 0.00 | 76 | 991.8 |
| 20260506154527 | 59 | 152 | 1.7 | 4.3 | 0.00 | 0.03 | 0.00 | 76 | 991.9 |
| 20260506154026 | 58 | 107 | 0.0 | 2.6 | 0.00 | 0.03 | 0.00 | 77 | 991.8 |
| 20260506153526 | 58 | 107 | 0.0 | 3.5 | 0.00 | 0.03 | 0.00 | 77 | 991.7 |
| 20260506153024 | 58 | 29 | 0.9 | 2.6 | 0.00 | 0.03 | 0.00 | 77 | 991.8 |
| 20260506152522 | 57 | 25 | 0.0 | 2.6 | 0.00 | 0.03 | 0.00 | 79 | 991.9 |
| 20260506152021 | 56 | 25 | 0.0 | 2.6 | 0.00 | 0.03 | 0.00 | 81 | 991.9 |
| 20260506151520 | 56 | 25 | 0.9 | 2.6 | 0.00 | 0.03 | 0.00 | 83 | 991.9 |
| 20260506151018 | 55 | 24 | 0.9 | 2.6 | 0.00 | 0.03 | 0.00 | 85 | 991.8 |
| 20260506150517 | 54 | 20 | 0.0 | 0.9 | 0.00 | 0.03 | 0.00 | 88 | 991.8 |
| 20260506150022 | 53 | 19 | 0.0 | 1.7 | 0.00 | 0.03 | 0.00 | 89 | 991.8 |
| 20260506145513 | 53 | 19 | 0.0 | 1.7 | 0.00 | 0.03 | 0.00 | 92 | 991.7 |
| 20260506145012 | 52 | 19 | 0.0 | 2.6 | 0.00 | 0.03 | 0.00 | 92 | 991.8 |
| 20260506144511 | 52 | 19 | 0.0 | 1.7 | 0.00 | 0.03 | 0.00 | 94 | 991.7 |
| 20260506144010 | 51 | 19 | 0.0 | 1.7 | 0.00 | 0.03 | 0.00 | 95 | 991.7 |
| 20260506143510 | 50 | 19 | 0.0 | 1.7 | 0.00 | 0.03 | 0.00 | 94 | 991.6 |
| 20260506143010 | 49 | 19 | 0.9 | 1.7 | 0.00 | 0.03 | 0.00 | 94 | 991.5 |
| 20260506142508 | 49 | 19 | 0.0 | 0.0 | 0.00 | 0.03 | 0.00 | 94 | 991.5 |
| 20260506142007 | 49 | 19 | 0.0 | 1.7 | 0.00 | 0.03 | 0.00 | 94 | 991.5 |
| 20260506141506 | 48 | 19 | 0.9 | 1.7 | 0.00 | 0.03 | 0.00 | 94 | 991.6 |
| 20260506141006 | 48 | 19 | 0.0 | 0.0 | 0.00 | 0.03 | 0.00 | 94 | 991.6 |
| 20260506140506 | 48 | 19 | 0.0 | 0.0 | 0.00 | 0.03 | 0.00 | 94 | 991.5 |
| 20260506140005 | 48 | 19 | 0.0 | 0.0 | 0.00 | 0.03 | 0.00 | 94 | 991.5 |
| 20260506135504 | 48 | 19 | 0.0 | 0.0 | 0.00 | 0.03 | 0.00 | 94 | 991.4 |
| 20260506135006 | 48 | 19 | 0.0 | 0.0 | 0.00 | 0.03 | 0.00 | 94 | 991.4 |
| 20260506134510 | 48 | 19 | 0.0 | 0.0 | 0.00 | 0.03 | 0.00 | 94 | 991.4 |
| 20260506134003 | 48 | 19 | 0.0 | 0.0 | 0.00 | 0.03 | 0.00 | 94 | 991.4 |
| 20260506133503 | 48 | 19 | 0.0 | 0.0 | 0.00 | 0.03 | 0.00 | 93 | 991.4 |
| 20260506133002 | 48 | 19 | 0.0 | 0.0 | 0.00 | 0.03 | 0.00 | 94 | 991.4 |
| 20260506132600 | 48 | 19 | 0.0 | 0.0 | 0.00 | 0.03 | 0.00 | 94 | 991.4 |
| 20260506132100 | 48 | 19 | 0.0 | 0.0 | 0.00 | 0.03 | 0.00 | 94 | 991.2 |
| 20260506131612 | 47 | 19 | 0.0 | 0.0 | 0.00 | 0.03 | 0.00 | 94 | 991.3 |
| 20260506131059 | 47 | 19 | 0.0 | 0.9 | 0.00 | 0.03 | 0.00 | 94 | 991.2 |
| 20260506130559 | 47 | 19 | 0.0 | 0.9 | 0.00 | 0.03 | 0.00 | 94 | 991.2 |
| 20260506130058 | 47 | 19 | 0.0 | 0.9 | 0.00 | 0.03 | 0.00 | 93 | 991.2 |
| 20260506125556 | 47 | 19 | 0.0 | 0.9 | 0.00 | 0.03 | 0.00 | 93 | 991.1 |
| 20260506125056 | 47 | 19 | 0.0 | 0.0 | 0.00 | 0.03 | 0.00 | 93 | 991.0 |
| 20260506124556 | 47 | 19 | 0.0 | 1.7 | 0.00 | 0.03 | 0.00 | 93 | 991.1 |
| 20260506124057 | 47 | 19 | 0.0 | 1.7 | 0.00 | 0.03 | 0.00 | 93 | 991.1 |
| 20260506123555 | 47 | 265 | 0.0 | 0.0 | 0.00 | 0.03 | 0.00 | 93 | 991.1 |
| 20260506123056 | 47 | 209 | 0.0 | 0.0 | 0.00 | 0.03 | 0.00 | 93 | 991.1 |
| 20260506122555 | 47 | 209 | 0.0 | 0.0 | 0.00 | 0.03 | 0.00 | 93 | 991.0 |
| 20260506122054 | 47 | 209 | 0.0 | 0.0 | 0.00 | 0.03 | 0.00 | 93 | 991.0 |
| 20260506121604 | 47 | 209 | 0.0 | 0.0 | 0.00 | 0.03 | 0.00 | 93 | 991.0 |
| 20260506121054 | 48 | 209 | 0.0 | 0.0 | 0.00 | 0.03 | 0.00 | 93 | 991.0 |
| 20260506120554 | 47 | 209 | 0.0 | 0.0 | 0.00 | 0.03 | 0.00 | 93 | 990.9 |
| 20260506120054 | 47 | 209 | 0.0 | 0.0 | 0.00 | 0.03 | 0.00 | 93 | 990.9 |
| 20260506115554 | 48 | 209 | 0.0 | 0.0 | 0.00 | 0.03 | 0.00 | 93 | 990.8 |
| 20260506115053 | 48 | 209 | 0.0 | 0.0 | 0.00 | 0.03 | 0.00 | 93 | 990.9 |
| 20260506114555 | 48 | 209 | 0.0 | 0.0 | 0.00 | 0.03 | 0.00 | 92 | 990.8 |
| 20260506114052 | 48 | 209 | 0.0 | 0.0 | 0.00 | 0.03 | 0.00 | 92 | 990.8 |
| 20260506113552 | 48 | 209 | 0.0 | 0.0 | 0.00 | 0.03 | 0.00 | 92 | 990.8 |
| 20260506113052 | 48 | 209 | 0.0 | 0.0 | 0.00 | 0.03 | 0.00 | 93 | 990.8 |
| 20260506112551 | 48 | 209 | 0.0 | 0.0 | 0.00 | 0.03 | 0.00 | 93 | 990.8 |
| 20260506112051 | 48 | 209 | 0.0 | 0.0 | 0.00 | 0.03 | 0.00 | 92 | 990.9 |
| 20260506111609 | 48 | 209 | 0.0 | 0.0 | 0.00 | 0.03 | 0.00 | 92 | 990.8 |
| 20260506111051 | 48 | 209 | 0.0 | 0.0 | 0.00 | 0.03 | 0.00 | 92 | 990.7 |
| 20260506110553 | 48 | 209 | 0.0 | 0.0 | 0.00 | 0.03 | 0.00 | 93 | 990.7 |
| 20260506110053 | 48 | 209 | 0.0 | 0.0 | 0.00 | 0.03 | 0.00 | 92 | 990.7 |
| 20260506105550 | 48 | 209 | 0.0 | 0.0 | 0.00 | 0.03 | 0.00 | 93 | 990.7 |
| 20260506105050 | 48 | 209 | 0.0 | 0.0 | 0.00 | 0.03 | 0.00 | 93 | 990.7 |
| 20260506104550 | 48 | 209 | 0.0 | 0.0 | 0.00 | 0.03 | 0.00 | 93 | 990.7 |
| 20260506104053 | 48 | 209 | 0.0 | 0.0 | 0.00 | 0.03 | 0.00 | 92 | 990.8 |
| 20260506103549 | 48 | 209 | 0.0 | 0.0 | 0.00 | 0.03 | 0.00 | 92 | 990.7 |
| 20260506103049 | 48 | 209 | 0.0 | 0.0 | 0.00 | 0.03 | 0.00 | 92 | 990.6 |
| 20260506102550 | 49 | 209 | 0.0 | 0.0 | 0.00 | 0.03 | 0.00 | 92 | 990.7 |
| 20260506102051 | 49 | 209 | 0.0 | 0.0 | 0.00 | 0.03 | 0.00 | 92 | 990.6 |
| 20260506101546 | 49 | 209 | 0.0 | 0.0 | 0.00 | 0.03 | 0.00 | 93 | 990.6 |
| 20260506101047 | 49 | 209 | 0.0 | 0.0 | 0.00 | 0.03 | 0.00 | 92 | 990.6 |
| 20260506100546 | 49 | 209 | 0.0 | 0.0 | 0.00 | 0.03 | 0.00 | 92 | 990.6 |
| 20260506100048 | 49 | 209 | 0.0 | 0.0 | 0.00 | 0.03 | 0.00 | 92 | 990.7 |
| 20260506095546 | 49 | 209 | 0.0 | 0.0 | 0.00 | 0.03 | 0.00 | 92 | 990.6 |
| 20260506095048 | 49 | 209 | 0.0 | 0.0 | 0.00 | 0.03 | 0.00 | 92 | 990.7 |
| 20260506094546 | 49 | 209 | 0.0 | 0.0 | 0.00 | 0.03 | 0.00 | 92 | 990.8 |
| 20260506094046 | 49 | 209 | 0.0 | 0.0 | 0.00 | 0.03 | 0.00 | 92 | 990.7 |
| 20260506093550 | 49 | 209 | 0.0 | 0.0 | 0.00 | 0.03 | 0.00 | 92 | 990.8 |
| 20260506093052 | 49 | 209 | 0.0 | 0.0 | 0.00 | 0.03 | 0.00 | 92 | 990.7 |
| 20260506092544 | 49 | 209 | 0.0 | 0.0 | 0.00 | 0.03 | 0.00 | 92 | 990.8 |
| 20260506092046 | 49 | 209 | 0.0 | 0.0 | 0.00 | 0.03 | 0.00 | 92 | 990.8 |
| 20260506091544 | 49 | 209 | 0.0 | 0.0 | 0.00 | 0.03 | 0.00 | 92 | 990.8 |
| 20260506091044 | 49 | 209 | 0.0 | 0.0 | 0.00 | 0.03 | 0.00 | 91 | 990.9 |
| 20260506090546 | 49 | 209 | 0.0 | 0.0 | 0.00 | 0.03 | 0.00 | 91 | 991.0 |
| 20260506090041 | 50 | 209 | 0.0 | 0.0 | 0.00 | 0.03 | 0.00 | 91 | 991.0 |
| 20260506085541 | 50 | 209 | 0.0 | 0.0 | 0.00 | 0.03 | 0.00 | 92 | 991.1 |
| 20260506085041 | 50 | 209 | 0.0 | 0.0 | 0.00 | 0.03 | 0.00 | 92 | 991.0 |
| 20260506084541 | 50 | 209 | 0.0 | 0.0 | 0.00 | 0.03 | 0.00 | 92 | 991.0 |
| 20260506084041 | 50 | 209 | 0.0 | 0.0 | 0.00 | 0.03 | 0.00 | 92 | 991.1 |
| 20260506083539 | 50 | 209 | 0.0 | 0.0 | 0.00 | 0.03 | 0.00 | 92 | 991.0 |
| 20260506083046 | 50 | 209 | 0.0 | 0.0 | 0.00 | 0.03 | 0.00 | 92 | 991.0 |
| 20260506082540 | 50 | 209 | 0.0 | 0.0 | 0.00 | 0.03 | 0.00 | 91 | 990.9 |
| 20260506082038 | 50 | 209 | 0.0 | 0.0 | 0.00 | 0.03 | 0.00 | 91 | 991.1 |
| 20260506081546 | 50 | 209 | 0.0 | 0.0 | 0.00 | 0.03 | 0.00 | 91 | 991.0 |
| 20260506081037 | 50 | 209 | 0.0 | 0.0 | 0.00 | 0.03 | 0.00 | 91 | 990.9 |
| 20260506080540 | 50 | 209 | 0.0 | 0.0 | 0.00 | 0.03 | 0.00 | 91 | 990.9 |
| 20260506073035 | 51 | 209 | 0.0 | 0.0 | 0.00 | 0.03 | 0.00 | 90 | 990.8 |
| 20260506072532 | 51 | 209 | 0.0 | 0.0 | 0.00 | 0.03 | 0.00 | 90 | 990.8 |
| 20260506072033 | 51 | 209 | 0.0 | 0.0 | 0.00 | 0.03 | 0.00 | 90 | 990.7 |
| 20260506071533 | 51 | 209 | 0.0 | 0.0 | 0.00 | 0.03 | 0.00 | 90 | 990.5 |
| 20260506071029 | 51 | 209 | 0.0 | 0.0 | 0.00 | 0.03 | 0.00 | 90 | 990.6 |
| 20260506070529 | 51 | 209 | 0.0 | 0.0 | 0.00 | 0.03 | 0.00 | 90 | 990.5 |
| 20260506062025 | 52 | 209 | 0.0 | 0.0 | 0.00 | 0.03 | 0.03 | 89 | 989.9 |
| 20260506061533 | 52 | 209 | 0.0 | 1.7 | 0.00 | 0.03 | 0.03 | 88 | 990.0 |
| 20260506061024 | 52 | 209 | 0.0 | 1.7 | 0.00 | 0.03 | 0.03 | 88 | 989.9 |
| 20260506060524 | 52 | 209 | 0.0 | 0.0 | 0.00 | 0.03 | 0.03 | 88 | 989.9 |
| 20260506051024 | 54 | 209 | 0.0 | 0.0 | 0.00 | 0.03 | 0.03 | 86 | 989.5 |
| 20260506050519 | 54 | 209 | 0.0 | 1.7 | 0.00 | 0.03 | 0.03 | 85 | 989.4 |
| 20260506045019 | 55 | 209 | 0.0 | 0.0 | 0.00 | 0.03 | 0.03 | 84 | 989.4 |
| 20260506044520 | 55 | 209 | 0.0 | 0.0 | 0.00 | 0.03 | 0.03 | 83 | 989.2 |
| 20260506044022 | 56 | 209 | 0.0 | 1.7 | 0.00 | 0.03 | 0.03 | 84 | 989.3 |
| 20260506043517 | 56 | 209 | 0.0 | 1.7 | 0.00 | 0.03 | 0.03 | 84 | 989.1 |
| 20260506043017 | 56 | 209 | 0.0 | 1.7 | 0.00 | 0.03 | 0.03 | 84 | 989.0 |
| 20260506042516 | 56 | 209 | 0.0 | 1.7 | 0.00 | 0.03 | 0.03 | 84 | 989.1 |
| 20260506042017 | 56 | 209 | 0.0 | 2.6 | 0.00 | 0.03 | 0.03 | 84 | 989.0 |
| 20260506041516 | 56 | 209 | 0.9 | 2.6 | 0.00 | 0.03 | 0.03 | 83 | 989.0 |
| 20260506041014 | 56 | 209 | 0.0 | 1.7 | 0.00 | 0.03 | 0.03 | 82 | 988.9 |
| 20260506040517 | 57 | 209 | 0.0 | 2.6 | 0.00 | 0.03 | 0.03 | 83 | 988.8 |
| 20260506040016 | 57 | 209 | 0.9 | 2.6 | 0.00 | 0.03 | 0.03 | 82 | 988.6 |
| 20260506035512 | 57 | 209 | 0.0 | 0.0 | 0.00 | 0.03 | 0.03 | 82 | 988.5 |
| 20260506035012 | 57 | 209 | 0.0 | 0.0 | 0.00 | 0.03 | 0.03 | 81 | 988.4 |
| 20260506034512 | 57 | 209 | 0.0 | 0.9 | 0.00 | 0.03 | 0.03 | 80 | 988.3 |
| 20260506034011 | 57 | 209 | 0.0 | 0.9 | 0.00 | 0.03 | 0.03 | 80 | 988.2 |
| 20260506033510 | 58 | 209 | 0.0 | 2.6 | 0.00 | 0.03 | 0.03 | 80 | 988.1 |
| 20260506033015 | 58 | 209 | 0.0 | 2.6 | 0.00 | 0.03 | 0.03 | 80 | 988.0 |
| 20260506032508 | 58 | 209 | 0.0 | 0.0 | 0.00 | 0.03 | 0.03 | 80 | 987.9 |
| 20260506032009 | 58 | 209 | 0.0 | 0.0 | 0.00 | 0.03 | 0.03 | 79 | 987.9 |
| 20260506031509 | 58 | 209 | 0.0 | 0.0 | 0.00 | 0.03 | 0.03 | 79 | 987.8 |
| 20260506031009 | 58 | 209 | 0.0 | 0.0 | 0.00 | 0.03 | 0.03 | 77 | 987.7 |
| 20260506030508 | 59 | 209 | 0.0 | 0.0 | 0.00 | 0.03 | 0.03 | 76 | 987.7 |
| 20260506030008 | 59 | 209 | 0.0 | 0.0 | 0.00 | 0.03 | 0.03 | 76 | 987.6 |
| 20260506025509 | 59 | 209 | 0.0 | 0.0 | 0.00 | 0.03 | 0.03 | 76 | 987.6 |
| 20260506025009 | 60 | 209 | 0.0 | 0.0 | 0.00 | 0.03 | 0.03 | 75 | 987.5 |
| 20260506024522 | 60 | 209 | 0.0 | 0.0 | 0.00 | 0.03 | 0.03 | 74 | 987.4 |
| 20260506024008 | 61 | 209 | 0.0 | 0.0 | 0.00 | 0.03 | 0.03 | 74 | 987.2 |
| 20260506023508 | 61 | 209 | 0.0 | 0.0 | 0.00 | 0.03 | 0.03 | 73 | 987.2 |
| 20260506023008 | 61 | 209 | 0.0 | 0.0 | 0.00 | 0.03 | 0.03 | 73 | 987.2 |
| 20260506022506 | 61 | 209 | 0.0 | 0.0 | 0.00 | 0.03 | 0.03 | 72 | 987.1 |
| 20260506022008 | 62 | 209 | 0.0 | 0.0 | 0.00 | 0.03 | 0.03 | 72 | 987.1 |
| 20260506021510 | 62 | 209 | 0.0 | 0.0 | 0.00 | 0.03 | 0.03 | 71 | 987.0 |
| 20260506021007 | 62 | 209 | 0.0 | 0.0 | 0.00 | 0.03 | 0.03 | 71 | 987.1 |
| 20260506020506 | 62 | 209 | 0.0 | 0.0 | 0.00 | 0.03 | 0.03 | 70 | 987.0 |
| 20260506020006 | 63 | 209 | 0.0 | 0.0 | 0.00 | 0.03 | 0.03 | 70 | 987.0 |
| 20260506015508 | 63 | 209 | 0.0 | 3.5 | 0.00 | 0.03 | 0.03 | 70 | 987.0 |
| 20260506015006 | 63 | 209 | 0.9 | 3.5 | 0.00 | 0.03 | 0.03 | 70 | 987.0 |
| 20260506014512 | 63 | 209 | 0.9 | 4.3 | 0.00 | 0.03 | 0.03 | 69 | 986.9 |
| 20260506014005 | 64 | 209 | 1.7 | 4.3 | 0.00 | 0.03 | 0.03 | 69 | 986.9 |
| 20260506013506 | 64 | 209 | 1.7 | 6.1 | 0.00 | 0.03 | 0.03 | 69 | 986.9 |
| 20260506013005 | 64 | 164 | 3.5 | 6.1 | 0.00 | 0.03 | 0.03 | 68 | 986.8 |
| 20260506012505 | 64 | 166 | 4.3 | 6.1 | 0.00 | 0.03 | 0.03 | 67 | 986.9 |
| 20260506012005 | 64 | 203 | 0.9 | 5.2 | 0.00 | 0.03 | 0.03 | 68 | 986.9 |
| 20260506011504 | 64 | 213 | 2.6 | 5.2 | 0.00 | 0.03 | 0.03 | 68 | 986.9 |
| 20260506011004 | 64 | 207 | 1.7 | 5.2 | 0.00 | 0.03 | 0.03 | 68 | 986.8 |
| 20260506010511 | 64 | 209 | 2.6 | 7.8 | 0.00 | 0.03 | 0.03 | 67 | 986.8 |
| 20260506010004 | 64 | 198 | 3.5 | 7.8 | 0.00 | 0.03 | 0.03 | 67 | 986.9 |
| 20260506005504 | 64 | 181 | 2.6 | 5.2 | 0.00 | 0.03 | 0.03 | 67 | 986.8 |
| 20260506005004 | 64 | 181 | 2.6 | 6.1 | 0.00 | 0.03 | 0.03 | 67 | 986.9 |
| 20260506004506 | 64 | 184 | 3.5 | 7.0 | 0.00 | 0.03 | 0.03 | 67 | 986.9 |
| 20260506004005 | 64 | 163 | 3.5 | 6.1 | 0.00 | 0.03 | 0.03 | 68 | 986.7 |
| 20260506003504 | 64 | 148 | 3.5 | 7.0 | 0.00 | 0.03 | 0.03 | 68 | 986.7 |
| 20260506003005 | 64 | 166 | 4.3 | 7.0 | 0.00 | 0.03 | 0.03 | 67 | 986.8 |
| 20260506002504 | 65 | 190 | 4.3 | 7.0 | 0.00 | 0.03 | 0.03 | 66 | 986.8 |
| 20260506002005 | 65 | 169 | 2.6 | 7.8 | 0.00 | 0.03 | 0.03 | 64 | 986.7 |
| 20260506001504 | 65 | 132 | 1.7 | 4.3 | 0.00 | 0.03 | 0.03 | 64 | 986.7 |
| 20260506001003 | 65 | 137 | 1.7 | 7.0 | 0.00 | 0.03 | 0.03 | 63 | 986.7 |
| 20260506000506 | 65 | 162 | 2.6 | 7.0 | 0.00 | 0.03 | 0.03 | 63 | 986.6 |
| 20260506000002 | 65 | 180 | 1.7 | 6.1 | 0.00 | 0.03 | 0.03 | 64 | 986.5 |
| 20260505235502 | 65 | 211 | 2.6 | 7.0 | 0.00 | 0.03 | 0.03 | 63 | 986.6 |
| 20260505235003 | 65 | 176 | 2.6 | 7.0 | 0.00 | 0.03 | 0.03 | 63 | 986.6 |
| 20260505234502 | 65 | 228 | 3.5 | 6.1 | 0.00 | 0.03 | 0.03 | 63 | 986.5 |
| 20260505234005 | 65 | 200 | 3.5 | 7.8 | 0.00 | 0.03 | 0.03 | 63 | 986.5 |